| time (UTC) | temp C | wind direction | speed KPH | gust KPH | rain 1hr cm | rain 24hr cm | rain mn cm | humidity % | barometer mb |
| 20260508043828 | 16 | 211 | 0.0 | 0.0 | 0.00 | 0.00 | 0.00 | 15 | 1011.2 |
| 20260508042837 | 16 | 211 | 0.0 | 0.0 | 0.00 | 0.00 | 0.00 | 15 | 1011.2 |
| 20260508041815 | 17 | 211 | 0.0 | 0.0 | 0.00 | 0.00 | 0.00 | 14 | 1011.1 |
| 20260508040805 | 17 | 211 | 0.0 | 0.0 | 0.00 | 0.00 | 0.00 | 14 | 1011.1 |
| 20260508035816 | 17 | 211 | 0.0 | 0.0 | 0.00 | 0.00 | 0.00 | 14 | 1011.1 |
| 20260508034750 | 17 | 211 | 0.0 | 0.0 | 0.00 | 0.00 | 0.00 | 14 | 1011.0 |
| 20260508032631 | 17 | 211 | 0.0 | 0.0 | 0.00 | 0.00 | 0.00 | 13 | 1010.7 |
| 20260508031611 | 17 | 211 | 0.0 | 0.0 | 0.00 | 0.00 | 0.00 | 13 | 1010.5 |
| 20260508025508 | 18 | 211 | 0.0 | 0.0 | 0.00 | 0.00 | 0.00 | 12 | 1010.4 |
| 20260508024503 | 18 | 211 | 0.0 | 0.0 | 0.00 | 0.00 | 0.00 | 12 | 1010.2 |
| 20260508023507 | 19 | 211 | 0.0 | 0.0 | 0.00 | 0.00 | 0.00 | 11 | 1010.0 |
| 20260508022500 | 20 | 211 | 0.0 | 0.0 | 0.00 | 0.00 | 0.00 | 11 | 1009.9 |
| 20260508020345 | 21 | 211 | 0.0 | 0.0 | 0.00 | 0.00 | 0.00 | 14 | 1009.7 |
| 20260508015323 | 22 | 211 | 0.0 | 0.0 | 0.00 | 0.00 | 0.00 | 14 | 1009.7 |
| 20260508014251 | 22 | 211 | 0.0 | 0.0 | 0.00 | 0.00 | 0.00 | 13 | 1009.5 |
| 20260508013316 | 22 | 211 | 0.0 | 0.0 | 0.00 | 0.00 | 0.00 | 13 | 1009.3 |
| 20260508011134 | 23 | 211 | 0.0 | 0.0 | 0.00 | 0.00 | 0.00 | 13 | 1009.1 |
| 20260508010139 | 23 | 211 | 0.0 | 1.6 | 0.00 | 0.00 | 0.00 | 12 | 1009.1 |
| 20260508005151 | 23 | 211 | 0.0 | 0.0 | 0.00 | 0.00 | 0.00 | 13 | 1009.1 |
| 20260508004118 | 23 | 211 | 0.0 | 4.8 | 0.00 | 0.00 | 0.00 | 12 | 1009.1 |
| 20260508001946 | 23 | 163 | 0.0 | 0.0 | 0.00 | 0.00 | 0.00 | 12 | 1009.2 |
| 20260508000933 | 23 | 163 | 0.0 | 0.0 | 0.00 | 0.00 | 0.00 | 11 | 1009.3 |
| 20260507235929 | 23 | 165 | 1.6 | 11.3 | 0.00 | 0.00 | 0.00 | 12 | 1009.3 |
| 20260507234928 | 23 | 157 | 1.6 | 9.7 | 0.00 | 0.00 | 0.00 | 12 | 1009.4 |
| 20260507233953 | 23 | 159 | 0.0 | 14.5 | 0.00 | 0.00 | 0.00 | 12 | 1009.4 |
| 20260507232939 | 23 | 157 | 0.0 | 0.0 | 0.00 | 0.00 | 0.00 | 12 | 1009.7 |
| 20260507230815 | 23 | 140 | 0.0 | 3.2 | 0.00 | 0.00 | 0.00 | 11 | 1009.8 |
| 20260507225824 | 23 | 140 | 1.6 | 0.0 | 0.00 | 0.00 | 0.00 | 12 | 1010.0 |
| 20260507224848 | 23 | 192 | 3.2 | 0.0 | 0.00 | 0.00 | 0.00 | 13 | 1010.2 |
| 20260507223855 | 23 | 150 | 0.0 | 16.1 | 0.00 | 0.00 | 0.00 | 13 | 1010.2 |
| 20260507222835 | 23 | 144 | 3.2 | 9.7 | 0.00 | 0.00 | 0.00 | 14 | 1010.3 |
| 20260507221825 | 23 | 165 | 0.0 | 6.4 | 0.00 | 0.00 | 0.00 | 14 | 1010.5 |
| 20260507220751 | 22 | 137 | 1.6 | 9.7 | 0.00 | 0.00 | 0.00 | 13 | 1010.7 |
| 20260507215738 | 22 | 159 | 1.6 | 0.0 | 0.00 | 0.00 | 0.00 | 14 | 1010.8 |
| 20260507214804 | 22 | 148 | 6.4 | 14.5 | 0.00 | 0.00 | 0.00 | 14 | 1011.0 |
| 20260507213814 | 22 | 151 | 4.8 | 14.5 | 0.00 | 0.00 | 0.00 | 15 | 1011.2 |
| 20260507211625 | 22 | 119 | 0.0 | 9.7 | 0.00 | 0.00 | 0.00 | 16 | 1011.9 |
| 20260507210600 | 22 | 144 | 3.2 | 12.9 | 0.00 | 0.00 | 0.00 | 17 | 1012.2 |
| 20260507205557 | 21 | 150 | 0.0 | 12.9 | 0.00 | 0.00 | 0.00 | 16 | 1012.3 |
| 20260507204530 | 21 | 144 | 0.0 | 0.0 | 0.00 | 0.00 | 0.00 | 19 | 1012.7 |
| 20260507203531 | 21 | 137 | 0.0 | 8.0 | 0.00 | 0.00 | 0.00 | 19 | 1012.7 |
| 20260507201444 | 21 | 159 | 0.0 | 9.7 | 0.00 | 0.00 | 0.00 | 20 | 1013.3 |
| 20260507200411 | 21 | 139 | 0.0 | 0.0 | 0.00 | 0.00 | 0.00 | 20 | 1013.4 |
| 20260507194211 | 20 | 139 | 1.6 | 6.4 | 0.00 | 0.00 | 0.00 | 22 | 1013.8 |
| 20260507193151 | 20 | 164 | 0.0 | 4.8 | 0.00 | 0.00 | 0.00 | 23 | 1014.0 |
| 20260507192120 | 20 | 159 | 0.0 | 3.2 | 0.00 | 0.00 | 0.00 | 23 | 1014.3 |
| 20260507185956 | 19 | 296 | 0.0 | 0.0 | 0.00 | 0.00 | 0.00 | 26 | 1014.6 |
| 20260507184950 | 18 | 297 | 0.0 | 0.0 | 0.00 | 0.00 | 0.00 | 26 | 1014.9 |
| 20260507184012 | 18 | 248 | 0.0 | 4.8 | 0.00 | 0.00 | 0.00 | 27 | 1015.2 |
| 20260507174457 | 17 | 141 | 0.0 | 6.4 | 0.00 | 0.00 | 0.00 | 27 | 1016.2 |
| 20260507173505 | 17 | 140 | 0.0 | 0.0 | 0.00 | 0.00 | 0.00 | 29 | 1016.2 |
| 20260507172443 | 17 | 140 | 0.0 | 0.0 | 0.00 | 0.00 | 0.00 | 31 | 1016.5 |
| 20260507171436 | 16 | 155 | 0.0 | 6.4 | 0.00 | 0.00 | 0.00 | 31 | 1016.7 |
| 20260507170416 | 16 | 304 | 0.0 | 0.0 | 0.00 | 0.00 | 0.00 | 29 | 1016.9 |
| 20260507165342 | 16 | 355 | 0.0 | 3.2 | 0.00 | 0.00 | 0.00 | 31 | 1016.9 |
| 20260507164307 | 15 | 348 | 0.0 | 0.0 | 0.00 | 0.00 | 0.00 | 34 | 1017.0 |
| 20260507163331 | 15 | 323 | 0.0 | 0.0 | 0.00 | 0.00 | 0.00 | 36 | 1017.1 |
| 20260507162345 | 14 | 5 | 0.0 | 0.0 | 0.00 | 0.00 | 0.00 | 37 | 1017.1 |
| 20260507161401 | 13 | 0 | 0.0 | 3.2 | 0.00 | 0.00 | 0.00 | 39 | 1017.2 |
| 20260507160400 | 13 | 322 | 0.0 | 8.0 | 0.00 | 0.00 | 0.00 | 40 | 1017.3 |
| 20260507154223 | 12 | 0 | 0.0 | 4.8 | 0.00 | 0.00 | 0.00 | 44 | 1017.4 |
| 20260507153213 | 11 | 346 | 0.0 | 9.7 | 0.00 | 0.00 | 0.00 | 45 | 1017.6 |
| 20260507152159 | 11 | 300 | 0.0 | 0.0 | 0.00 | 0.00 | 0.00 | 48 | 1017.6 |
| 20260507151127 | 11 | 346 | 0.0 | 0.0 | 0.00 | 0.00 | 0.00 | 51 | 1017.7 |
| 20260507145001 | 10 | 348 | 0.0 | 8.0 | 0.00 | 0.00 | 0.00 | 54 | 1017.9 |
| 20260507142820 | 9 | 337 | 0.0 | 6.4 | 0.00 | 0.00 | 0.00 | 56 | 1018.0 |
| 20260507141807 | 9 | 344 | 0.0 | 8.0 | 0.00 | 0.00 | 0.00 | 57 | 1017.9 |
| 20260507140746 | 8 | 316 | 0.0 | 14.5 | 0.00 | 0.00 | 0.00 | 58 | 1017.8 |
| 20260507135716 | 8 | 344 | 1.6 | 14.5 | 0.00 | 0.00 | 0.00 | 58 | 1017.8 |
| 20260507133553 | 8 | 5 | 0.0 | 19.3 | 0.00 | 0.00 | 0.00 | 60 | 1017.9 |
| 20260507132551 | 7 | 340 | 1.6 | 19.3 | 0.00 | 0.00 | 0.00 | 60 | 1017.8 |
| 20260507131607 | 7 | 348 | 0.0 | 9.7 | 0.00 | 0.00 | 0.00 | 63 | 1017.8 |
| 20260507130632 | 7 | 355 | 0.0 | 6.4 | 0.00 | 0.00 | 0.00 | 64 | 1017.9 |
| 20260507125610 | 6 | 340 | 0.0 | 9.7 | 0.00 | 0.00 | 0.00 | 65 | 1017.8 |
| 20260507124617 | 6 | 329 | 0.0 | 9.7 | 0.00 | 0.00 | 0.00 | 66 | 1017.9 |
| 20260507123638 | 6 | 323 | 0.0 | 6.4 | 0.00 | 0.00 | 0.00 | 66 | 1017.8 |
| 20260507122622 | 6 | 341 | 0.0 | 0.0 | 0.00 | 0.00 | 0.00 | 66 | 1017.8 |
| 20260507121647 | 6 | 319 | 0.0 | 3.2 | 0.00 | 0.00 | 0.00 | 65 | 1017.7 |
| 20260507120612 | 5 | 313 | 0.0 | 0.0 | 0.00 | 0.00 | 0.00 | 65 | 1017.5 |
| 20260507115636 | 5 | 355 | 0.0 | 0.0 | 0.00 | 0.00 | 0.00 | 63 | 1017.6 |
| 20260507114616 | 5 | 355 | 0.0 | 0.0 | 0.00 | 0.00 | 0.00 | 61 | 1017.7 |
| 20260507112437 | 6 | 355 | 0.0 | 0.0 | 0.00 | 0.00 | 0.00 | 57 | 1017.9 |
| 20260507110342 | 5 | 316 | 0.0 | 0.0 | 0.00 | 0.00 | 0.00 | 52 | 1017.7 |
| 20260507105405 | 6 | 315 | 0.0 | 0.0 | 0.00 | 0.00 | 0.00 | 47 | 1017.8 |
| 20260507104418 | 6 | 315 | 0.0 | 0.0 | 0.00 | 0.00 | 0.00 | 44 | 1017.7 |
| 20260507103416 | 6 | 315 | 0.0 | 0.0 | 0.00 | 0.00 | 0.00 | 44 | 1017.8 |
| 20260507102355 | 6 | 315 | 0.0 | 0.0 | 0.00 | 0.00 | 0.00 | 42 | 1017.7 |
| 20260507095054 | 7 | 12 | 0.0 | 3.2 | 0.00 | 0.00 | 0.00 | 38 | 1017.5 |
| 20260507094032 | 7 | 318 | 0.0 | 1.6 | 0.00 | 0.00 | 0.00 | 38 | 1017.5 |
| 20260507093015 | 7 | 316 | 0.0 | 0.0 | 0.00 | 0.00 | 0.00 | 36 | 1017.5 |
| 20260507091956 | 8 | 312 | 0.0 | 0.0 | 0.00 | 0.00 | 0.00 | 35 | 1017.5 |
| 20260507090956 | 8 | 310 | 3.2 | 12.9 | 0.00 | 0.00 | 0.00 | 36 | 1017.3 |
| 20260507085950 | 7 | 291 | 6.4 | 12.9 | 0.00 | 0.00 | 0.00 | 35 | 1017.5 |
| 20260507084922 | 7 | 321 | 0.0 | 4.8 | 0.00 | 0.00 | 0.00 | 35 | 1017.5 |
| 20260507083903 | 8 | 40 | 4.8 | 12.9 | 0.00 | 0.00 | 0.00 | 35 | 1017.3 |
| 20260507082918 | 7 | 294 | 4.8 | 11.3 | 0.00 | 0.00 | 0.00 | 35 | 1017.1 |
| 20260507080747 | 8 | 125 | 4.8 | 14.5 | 0.00 | 0.00 | 0.00 | 34 | 1016.8 |
| 20260507075754 | 8 | 292 | 11.3 | 17.7 | 0.00 | 0.00 | 0.00 | 33 | 1016.6 |
| 20260507073626 | 10 | 287 | 6.4 | 16.1 | 0.00 | 0.00 | 0.00 | 31 | 1016.5 |
| 20260507072556 | 10 | 282 | 8.0 | 16.1 | 0.00 | 0.00 | 0.00 | 30 | 1016.5 |
| 20260507071612 | 10 | 289 | 8.0 | 16.1 | 0.00 | 0.00 | 0.00 | 30 | 1016.3 |
| 20260507064357 | 10 | 287 | 9.7 | 14.5 | 0.00 | 0.00 | 0.00 | 32 | 1016.3 |
| 20260507063336 | 10 | 309 | 6.4 | 14.5 | 0.00 | 0.00 | 0.00 | 32 | 1016.3 |
| 20260507062357 | 10 | 277 | 6.4 | 11.3 | 0.00 | 0.00 | 0.00 | 32 | 1016.3 |
| 20260507061404 | 10 | 278 | 8.0 | 12.9 | 0.00 | 0.00 | 0.00 | 32 | 1016.1 |
| 20260507060409 | 11 | 288 | 11.3 | 16.1 | 0.00 | 0.00 | 0.00 | 32 | 1016.1 |
| 20260507055404 | 11 | 290 | 9.7 | 16.1 | 0.00 | 0.00 | 0.00 | 32 | 1015.9 |
| 20260507054410 | 11 | 292 | 9.7 | 16.1 | 0.00 | 0.00 | 0.00 | 32 | 1015.9 |
| 20260507052235 | 11 | 279 | 8.0 | 12.9 | 0.00 | 0.00 | 0.00 | 33 | 1015.7 |
| 20260507051208 | 12 | 303 | 6.4 | 11.3 | 0.00 | 0.00 | 0.00 | 34 | 1015.6 |
| 20260507045035 | 12 | 279 | 8.0 | 14.5 | 0.00 | 0.00 | 0.00 | 38 | 1015.2 |